Regional Weather Roundup
Issued by NWS

Home | Current Version | Previous Version | Text Only | Print | Product List | Glossary On
Versions: 1 2 3 4 5 6 7 8 9 10 11 12 13 14 15 16 17 18 19 20 21 22 23 24 25 26 27 28 29 30 31 32 33 34 35 36 37 38 39 40 41 42 43 44 45 46 47 48 49 50
000
ASUS43 KDTX 051310
RWRMI
MICHIGAN HOURLY REGIONAL WEATHER ROUNDUP
NATIONAL WEATHER SERVICE DETROIT/PONTIAC MI
900 AM EDT THU MAY 05 2016

NOTE: "FAIR" INDICATES FEW OR NO CLOUDS BELOW 12,000 FEET WITH NO
SIGNIFICANT WEATHER AND/OR OBSTRUCTION TO VISIBILITY.

MIZ047>049-052>055-059>063-066>070-074>076-081>083-051400-
SOUTHEAST LOWER MICHIGAN

CITY           SKY/WX    TMP DP  RH WIND       PRES   REMARKS
ADRIAN         SUNNY     50  44  80 N13       29.84R
ALMA           SUNNY     48  44  88 N10       29.91R
ANN ARBOR      SUNNY     51  44  77 N13       29.83R
BAD AXE        CLOUDY    46  44  95 N10G16    29.89R
CARO           CLOUDY    47  44  90 N8        29.88R
DETROIT CITY   SUNNY     52  43  71 NE12      29.83R
DETROIT        MOSUNNY   53  44  71 N12       29.83R
FLINT          MOSUNNY   52  44  74 N12       29.86S
GROSSE ILE     SUNNY     52  45  76 N9        29.81R
HILLSDALE      MOSUNNY   47  43  83 N12       29.85R
HOWELL         PTSUNNY   48  45  90 N6        29.86R

CITY           SKY/WX    TMP DP  RH WIND       PRES   REMARKS
JACKSON        MOSUNNY   47  43  86 N8G18     29.87R
LAMBERTVILLE   SUNNY     52  45  76 NE6G17    29.82R
LANSING        CLOUDY    45  42  89 N8        29.90R
LAPEER         FAIR      48  42  80 N8        29.87R
MASON          CLOUDY    46  43  91 N9        29.88R
MONROE         SUNNY     51  44  76 N8        29.81R
MT. CLEMENS    SUNNY     52  45  77 N13       29.82R
PONTIAC        MOSUNNY   49  43  80 N8        29.84R
PORT HOPE        N/A     45  42  89 N8        29.88R
PORT HURON     SUNNY     52  43  71 NE9       29.84S
TRI CITIES     SUNNY     50  44  80 N14       29.91R
MIDLAND        FAIR      49  44  82 N5        29.91R
TROY           SUNNY     53  45  75 N8        29.85R
SAGINAW HB     MOSUNNY   50  45  81 N16       29.89R
$$
MIZ043>046-050>051-056>058-064>065-071>073-077>080-051400-
SOUTHWEST LOWER MICHIGAN

CITY           SKY/WX    TMP DP  RH WIND       PRES   REMARKS
BATTLE CREEK   CLOUDY    46  42  86 N9        29.90R
BENTON HARBOR  CLOUDY    45  40  82 VRB5      29.92R
BIG RAPIDS     CLOUDY    42  39  90 N9        29.94R
COLDWATER      CLOUDY    46  44  90 N8        29.88R
FREMONT        FAIR      42  40  91 N9        29.94R
HOLLAND        CLOUDY   N/A N/A N/A NE7       29.94R
GRAND RAPIDS   MOSUNNY   50  43  77 N6        29.92R
IONIA          FAIR      47  43  85 NE6       29.90R
KALAMAZOO      PTSUNNY   48  41  76 NE8       29.90R
LUDINGTON      SUNNY     44  39  85 N7        29.98R
MARSHALL       CLOUDY    46  42  88 N5        29.88R
MOUNT PLEASANT   N/A     48  44  88 N7        29.91
MUSKEGON       SUNNY     46  37  71 NE10      29.95R
SOUTH HAVEN    CLOUDY    44  41  90 N8        29.93R
$$
MIZ016>042-051400-
NORTHERN LOWER MICHIGAN

CITY           SKY/WX    TMP DP  RH WIND       PRES   REMARKS
ALPENA         SUNNY     49  43  80 N8        29.94S
BEAVER ISLAND  SUNNY     41  37  86 NW9       30.00R
BELLAIRE       MOSUNNY   44  39  84 CALM      29.99R
CADILLAC       FOG       40  39  97 N6        29.94R VSB 1/2
CHARLEVOIX     CLOUDY    41  40  95 N5        30.02R
FRANKFORT      PTSUNNY   42  39  88 E3        29.99R
GAYLORD        CLOUDY    43  40  89 VRB6      29.95R
HARBOR SPRINGS PTSUNNY   44  40  88 N8        29.98R
HOUGHTON LAKE  CLOUDY    43  41  93 N7        29.94R
MANISTEE       PTSUNNY   43  36  75 NE6       29.99R
OSCODA         CLOUDY    48  44  88 N10G16    29.91R
PELLSTON       CLOUDY    43  40  89 W8        29.98R
ROGERS CITY    SUNNY     45  42  87 NW7       29.97R
TRAVERSE CITY  CLOUDY    43  37  79 N8        29.99R
$$
MIZ007>008-015-051400-
EASTERN UPPER MICHIGAN

CITY           SKY/WX    TMP DP  RH WIND       PRES   REMARKS
KINROSS          N/A     43  43 100 N7        29.97R
MACKINAC ISLAN CLOUDY    42  42 100 N7        29.97S
NEWBERRY       SUNNY     40  37  88 N5        29.98S
S. S. MARIE    CLOUDY    45  40  82 VRB3      29.96S
MUNISING         N/A     40  34  79 N5        30.02R
$$
MIZ004>006-011>014-085-051400-
CENTRAL UPPER MICHIGAN

CITY           SKY/WX    TMP DP  RH WIND       PRES   REMARKS
MANISTIQUE     SUNNY     42  36  80 N12       29.99S
ESCANABA       CLOUDY    37  34  87 NW9       30.03R WCI  31
MENOMINEE      SUNNY     41  34  75 N8        30.05R
SAWYER-GWINN   SUNNY     37  34  87 N7        30.03R WCI  32
$$
MIZ001>003-009>011-084-051400-
WESTERN UPPER MICHIGAN

CITY           SKY/WX    TMP DP  RH WIND       PRES   REMARKS
IRON MOUNTAIN  SUNNY     39  32  76 NW7       30.02R WCI  34
HOUGHTON       SUNNY     41  32  70 SW8       30.01R
COPPER HARBOR    N/A     40  35  83 N3        30.01S
IRONWOOD         N/A     43  36  75 CALM      30.00F
$$

ABBREVIATIONS USED IN REMARKS
   TC - TEMPERATURE IN CELSIUS
  WCI - WIND CHILL INDEX
   HX - HEAT INDEX
  VSB - VISIBILITY




USA.gov is the U.S. government's official web portal to all federal, state and local government web resources and services.